FW1304 Weather Reports


time (UTC)temp
C
wind
direction
speed
KPH
gust
KPH
rain 1hr
cm
rain 24hr
cm
rain mn
cm
humidity
%
barometer
mb
20260504050334 14 205 0.0 3.2 0.00 0.00 0.00 44 998.3
20260504045838 14 212 0.0 3.2 0.00 0.00 0.00 44 998.4
20260504045322 14 204 0.0 3.2 0.00 0.00 0.00 44 998.5
20260504044819 14 190 0.0 1.6 0.00 0.00 0.00 44 998.6
20260504044344 14 216 0.0 0.0 0.00 0.00 0.00 43 998.6
20260504043839 14 189 0.0 1.6 0.00 0.00 0.00 43 998.7
20260504043326 14 210 0.0 3.2 0.00 0.00 0.00 44 998.9
20260504042822 14 216 0.0 3.2 0.00 0.00 0.00 43 999.0
20260504042318 14 208 0.0 0.0 0.00 0.00 0.00 44 999.1
20260504041824 14 203 0.0 0.0 0.00 0.00 0.00 44 999.2
20260504041326 14 200 0.0 1.6 0.00 0.00 0.00 44 999.4
20260504040823 14 232 0.0 1.6 0.00 0.00 0.00 43 999.6
20260504040339 14 216 0.0 0.0 0.00 0.00 0.00 44 999.6
20260504035837 14 203 0.0 0.0 0.00 0.00 0.00 44 999.8
20260504035326 14 215 0.0 0.0 0.00 0.00 0.00 44 999.9
20260504034820 14 198 0.0 0.0 0.00 0.00 0.00 45 1000.0
20260504034324 14 211 0.0 0.0 0.00 0.00 0.00 45 1000.0
20260504033831 14 196 0.0 0.0 0.00 0.00 0.00 46 1000.2
20260504033328 14 200 0.0 0.0 0.00 0.00 0.00 46 1000.3
20260504032830 14 202 0.0 0.0 0.00 0.00 0.00 47 1000.3
20260504032318 14 205 0.0 0.0 0.00 0.00 0.00 47 1000.4
20260504031834 15 210 0.0 0.0 0.00 0.00 0.00 45 1000.5
20260504031315 15 208 0.0 0.0 0.00 0.00 0.00 46 1000.6
20260504030853 15 217 0.0 0.0 0.00 0.00 0.00 41 1000.7
20260504030349 15 218 0.0 0.0 0.00 0.00 0.00 40 1000.9
20260504025824 15 218 0.0 0.0 0.00 0.00 0.00 40 1000.9
20260504025320 15 217 0.0 0.0 0.00 0.00 0.00 39 1001.0
20260504024829 15 219 0.0 0.0 0.00 0.00 0.00 39 1001.0
20260504024332 15 218 0.0 0.0 0.00 0.00 0.00 38 1001.1
20260504023825 16 221 0.0 0.0 0.00 0.00 0.00 38 1001.1
20260504023338 16 227 0.0 0.0 0.00 0.00 0.00 38 1001.1
20260504022821 16 233 0.0 0.0 0.00 0.00 0.00 37 1001.2
20260504022329 16 233 0.0 0.0 0.00 0.00 0.00 36 1001.3
20260504021846 16 233 0.0 0.0 0.00 0.00 0.00 36 1001.3
20260504021328 16 232 0.0 0.0 0.00 0.00 0.00 35 1001.3
20260504020845 17 232 0.0 0.0 0.00 0.00 0.00 34 1001.3
20260504020331 17 232 0.0 0.0 0.00 0.00 0.00 34 1001.3
20260504015822 17 250 0.0 0.0 0.00 0.00 0.00 34 1001.3
20260504015329 17 238 0.0 0.0 0.00 0.00 0.00 33 1001.3
20260504014845 17 241 0.0 0.0 0.00 0.00 0.00 33 1001.3
20260504014322 17 240 0.0 0.0 0.00 0.00 0.00 32 1001.3
20260504013837 18 247 0.0 0.0 0.00 0.00 0.00 32 1001.3
20260504013333 18 248 0.0 0.0 0.00 0.00 0.00 31 1001.3
20260504012831 18 229 0.0 0.0 0.00 0.00 0.00 30 1001.4
20260504012319 18 261 0.0 0.0 0.00 0.00 0.00 30 1001.4
20260504011817 18 232 0.0 0.0 0.00 0.00 0.00 29 1001.4
20260504011319 19 252 0.0 0.0 0.00 0.00 0.00 29 1001.4
20260504010827 19 266 0.0 0.0 0.00 0.00 0.00 29 1001.4
20260504010343 19 256 0.0 0.0 0.00 0.00 0.00 28 1001.4
20260504005856 19 241 0.0 0.0 0.00 0.00 0.00 28 1001.4
20260504005321 20 267 0.0 0.0 0.00 0.00 0.00 28 1001.4
20260504004837 20 254 0.0 0.0 0.00 0.00 0.00 27 1001.4
20260504004342 20 257 0.0 0.0 0.00 0.00 0.00 27 1001.5
20260504003829 20 259 0.0 0.0 0.00 0.00 0.00 27 1001.5
20260504003346 20 298 0.0 0.0 0.00 0.00 0.00 26 1001.5
20260504002828 20 252 0.0 0.0 0.00 0.00 0.00 27 1001.6
20260504002346 20 276 0.0 1.6 0.00 0.00 0.00 27 1001.8
20260504001828 20 267 0.0 1.6 0.00 0.00 0.00 26 1001.7
20260504001333 20 273 0.0 1.6 0.00 0.00 0.00 26 1001.8
20260504000838 20 295 0.0 1.6 0.00 0.00 0.00 25 1001.7
20260504000313 20 300 0.0 1.6 0.00 0.00 0.00 25 1001.8
20260503235816 20 259 0.0 6.4 0.00 0.00 0.00 24 1001.9
20260503235332 20 259 0.0 6.4 0.00 0.00 0.00 24 1001.9
20260503234819 20 277 0.0 6.4 0.00 0.00 0.00 24 1001.9
20260503234316 20 244 0.0 9.7 0.00 0.00 0.00 24 1001.8
20260503233832 20 273 1.6 9.7 0.00 0.00 0.00 23 1001.8
20260503233349 20 271 0.0 3.2 0.00 0.00 0.00 24 1001.9
20260503232830 20 294 0.0 9.7 0.00 0.00 0.00 25 1001.9
20260503232318 21 271 1.6 9.7 0.00 0.00 0.00 25 1002.0
20260503231814 21 289 1.6 8.0 0.00 0.00 0.00 25 1002.1
20260503231317 21 269 0.0 8.0 0.00 0.00 0.00 25 1002.0
20260503230834 21 273 1.6 8.0 0.00 0.00 0.00 25 1002.1
20260503230321 21 250 0.0 6.4 0.00 0.00 0.00 25 1002.1
20260503225824 21 233 0.0 8.0 0.00 0.00 0.00 25 1002.1
20260503225340 21 261 1.6 8.0 0.00 0.00 0.00 25 1002.1
20260503224828 21 259 0.0 6.4 0.00 0.00 0.00 25 1002.2
20260503224332 21 226 0.0 8.0 0.00 0.00 0.00 25 1002.2
20260503223828 21 304 0.0 8.0 0.00 0.00 0.00 24 1002.2
20260503223316 21 265 0.0 0.0 0.00 0.00 0.00 27 1002.3
20260503222816 21 277 0.0 1.6 0.00 0.00 0.00 24 1002.3
20260503222332 21 307 0.0 1.6 0.00 0.00 0.00 24 1002.4
20260503221818 21 331 0.0 6.4 0.00 0.00 0.00 23 1002.4
20260503221320 21 306 1.6 6.4 0.00 0.00 0.00 24 1002.5
20260503220837 21 253 0.0 3.2 0.00 0.00 0.00 24 1002.5
20260503220326 21 254 0.0 6.4 0.00 0.00 0.00 24 1002.5
20260503215828 21 252 1.6 8.0 0.00 0.00 0.00 24 1002.6
20260503215345 21 291 1.6 8.0 0.00 0.00 0.00 24 1002.6
20260503214840 21 285 0.0 8.0 0.00 0.00 0.00 25 1002.7
20260503214342 21 292 0.0 6.4 0.00 0.00 0.00 25 1002.7
20260503213839 21 290 1.6 12.9 0.00 0.00 0.00 24 1002.8
20260503213326 21 310 0.0 12.9 0.00 0.00 0.00 24 1002.8
20260503212822 21 333 0.0 3.2 0.00 0.00 0.00 26 1002.8
20260503212319 21 303 0.0 1.6 0.00 0.00 0.00 24 1002.9
20260503211827 21 283 0.0 8.0 0.00 0.00 0.00 24 1003.0
20260503211359 21 313 0.0 8.0 0.00 0.00 0.00 23 1003.1
20260503210825 21 254 0.0 6.4 0.00 0.00 0.00 23 1003.1
20260503210337 21 225 0.0 6.4 0.00 0.00 0.00 23 1003.2
20260503205840 21 286 0.0 6.4 0.00 0.00 0.00 24 1003.2
20260503205315 21 307 0.0 8.0 0.00 0.00 0.00 23 1003.1
20260503204852 21 346 0.0 6.4 0.00 0.00 0.00 24 1003.2
20260503204329 21 339 0.0 6.4 0.00 0.00 0.00 23 1003.3
20260503203845 21 312 0.0 3.2 0.00 0.00 0.00 24 1003.4
20260503203340 21 329 0.0 9.7 0.00 0.00 0.00 25 1003.5
20260503202813 21 284 0.0 9.7 0.00 0.00 0.00 23 1003.5
20260503202330 20 257 0.0 3.2 0.00 0.00 0.00 25 1003.6
20260503201814 20 254 0.0 6.4 0.00 0.00 0.00 24 1003.5
20260503201347 20 248 0.0 6.4 0.00 0.00 0.00 25 1003.6
20260503200814 20 311 0.0 6.4 0.00 0.00 0.00 25 1003.6
20260503200347 20 5 0.0 3.2 0.00 0.00 0.00 24 1003.7
20260503195831 20 355 0.0 3.2 0.00 0.00 0.00 26 1003.8
20260503195317 20 360 0.0 3.2 0.00 0.00 0.00 25 1003.8
20260503194835 20 279 0.0 3.2 0.00 0.00 0.00 26 1003.8
20260503194338 19 340 0.0 3.2 0.00 0.00 0.00 25 1003.9
20260503193826 19 10 0.0 8.0 0.00 0.00 0.00 26 1003.9
20260503193322 19 338 0.0 9.7 0.00 0.00 0.00 24 1003.9
20260503192818 20 31 1.6 12.9 0.00 0.00 0.00 24 1004.0
20260503192314 20 331 0.0 9.7 0.00 0.00 0.00 25 1004.1
20260503191832 20 5 1.6 9.7 0.00 0.00 0.00 26 1004.1
20260503191334 20 324 0.0 3.2 0.00 0.00 0.00 26 1004.2
20260503190821 19 344 0.0 8.0 0.00 0.00 0.00 24 1004.4
20260503190319 19 319 0.0 8.0 0.00 0.00 0.00 25 1004.5
20260503185819 19 324 0.0 14.5 0.00 0.00 0.00 25 1004.5
20260503185335 19 342 0.0 14.5 0.00 0.00 0.00 25 1004.5
20260503184822 19 28 1.6 11.3 0.00 0.00 0.00 25 1004.5
20260503184343 19 351 0.0 8.0 0.00 0.00 0.00 26 1004.5
20260503183818 19 321 0.0 6.4 0.00 0.00 0.00 26 1004.6
20260503183355 19 308 0.0 6.4 0.00 0.00 0.00 27 1004.6
20260503182837 18 344 1.6 6.4 0.00 0.00 0.00 28 1004.5
20260503182324 18 313 0.0 8.0 0.00 0.00 0.00 29 1004.6
20260503181820 18 326 0.0 8.0 0.00 0.00 0.00 29 1004.6
20260503181325 19 306 1.6 8.0 0.00 0.00 0.00 29 1004.6
20260503180901 19 326 1.6 6.4 0.00 0.00 0.00 31 1004.7
20260503180328 18 323 0.0 8.0 0.00 0.00 0.00 32 1004.7
20260503175830 18 318 0.0 12.9 0.00 0.00 0.00 30 1004.9
20260503175346 18 312 1.6 12.9 0.00 0.00 0.00 29 1004.9
20260503174842 18 321 0.0 8.0 0.00 0.00 0.00 30 1005.0
20260503174322 18 348 1.6 8.0 0.00 0.00 0.00 29 1004.9
20260503173829 18 22 1.6 8.0 0.00 0.00 0.00 29 1004.8
20260503173325 18 321 0.0 8.0 0.00 0.00 0.00 30 1004.9
20260503172822 18 285 0.0 8.0 0.00 0.00 0.00 31 1004.9
20260503172320 18 360 0.0 8.0 0.00 0.00 0.00 29 1005.0
20260503171822 18 333 0.0 8.0 0.00 0.00 0.00 28 1005.0
20260503171326 18 346 0.0 6.4 0.00 0.00 0.00 31 1005.0
20260503170822 18 316 0.0 11.3 0.00 0.00 0.00 31 1005.0
20260503170330 18 336 0.0 11.3 0.00 0.00 0.00 35 1005.0
20260503150841 17 340 1.6 8.0 0.00 0.00 0.00 47 1004.5
20260503150325 17 315 1.6 12.9 0.00 0.00 0.00 47 1004.6
20260503131329 13 23 0.0 9.7 0.00 0.00 0.00 54 1003.9
20260503130825 13 18 1.6 9.7 0.00 0.00 0.00 55 1004.0
20260503130321 13 343 0.0 12.9 0.00 0.00 0.00 56 1004.0
20260503110826 11 248 0.0 0.0 0.00 0.00 0.00 59 1002.3
20260503110342 11 246 0.0 0.0 0.00 0.00 0.00 58 1002.3
20260503090335 13 229 0.0 6.4 0.00 0.00 0.00 49 1002.3
20260503081346 14 234 0.0 1.6 0.00 0.00 0.00 49 1002.6
20260503080814 14 179 0.0 3.2 0.00 0.00 0.00 49 1002.5
20260503080330 14 212 0.0 6.4 0.00 0.00 0.00 49 1002.6
20260503072829 14 214 0.0 3.2 0.00 0.00 0.00 50 1002.7
20260503072346 14 205 0.0 3.2 0.00 0.00 0.00 50 1002.8
20260503071832 14 237 0.0 3.2 0.00 0.00 0.00 51 1002.8
20260503071342 14 221 0.0 3.2 0.00 0.00 0.00 51 1002.9
20260503070849 14 204 0.0 6.4 0.00 0.00 0.00 52 1003.0
20260503070326 14 218 0.0 6.4 0.00 0.00 0.00 52 1002.9
20260503060314 14 220 0.0 6.4 0.00 0.00 0.00 51 1003.7
20260503054849 14 200 0.0 3.2 0.00 0.00 0.00 51 1003.9
20260503054331 14 212 0.0 3.2 0.00 0.00 0.00 49 1004.0
20260503053832 14 205 0.0 3.2 0.00 0.00 0.00 49 1004.0
20260503053329 14 211 0.0 3.2 0.00 0.00 0.00 49 1004.0
20260503052827 14 215 0.0 3.2 0.00 0.00 0.00 48 1004.0